Regional Weather Roundup
Issued by NWS

Home | Current Version | Previous Version | Text Only | Print | Product List | Glossary On
Versions: 1 2 3 4 5 6 7 8 9 10 11 12 13 14 15 16 17 18 19 20 21 22 23 24 25 26 27 28 29 30 31 32 33 34 35 36 37 38 39 40 41 42 43 44 45 46 47 48 49 50
000
ASUS46 KLOX 171813
RWRCA

SOUTHERN CALIFORNIA WEATHER ROUNDUP
NATIONAL WEATHER SERVICE OXNARD CALIFORNIA
1000 AM PST WED JAN 17 2018

NOTE: "FAIR" INDICATES FEW OR NO CLOUDS BELOW 12,000 FEET WITH NO
SIGNIFICANT WEATHER AND/OR OBSTRUCTIONS TO VISIBILITY.

  -  STATIONS PRECEEDED BY AN ASTERISK (*) ARE NOT NWS OR FAA
     STATIONS AND ARE NOT SUBJECT TO NWS AND FAA QUALITY CONTROL.

CAZ041-042-087-171900-
LA AND ORANGE COUNTY COASTAL AREAS


CITY           SKY/WX    TMP DP  RH WIND       PRES   REMARKS
L.A. DOWNTOWN  SUNNY     67  44  43 CALM      30.17R
L.A. AIRPORT   PTSUNNY   67  48  50 E6        30.18R
LONG BEACH     MOSUNNY   64  51  62 CALM      30.18R HAZE

CITY           SKY/WX    TMP DP  RH WIND       PRES   REMARKS
AVALON           N/A    N/A N/A N/A MISG        N/A
FULLERTON      SUNNY     65  47  52 CALM      30.17R
*GETTY CENTER    N/A     70  36  28 NE3         N/A
HAWTHORNE      SUNNY     67  48  50 CALM      30.18R HAZE
*LEO CARRILLO    N/A     65  56  73 SE3         N/A
*LOS ALAMITOS  PTSUNNY   62  52  71 CALM      30.17R HAZE
*REDONDO BEACH   N/A     64  52  64 W2        30.17R
SANTA ANA      PTSUNNY   64  53  67 CALM      30.17S HAZE
STA MONICA APT SUNNY     68  49  50 CALM      30.18R
TORRANCE       PTSUNNY   63  52  67 CALM      30.18R
*UCLA            N/A     73  41  31 CALM      30.15S

$$

CAZ547-548-048-171900-
LA COUNTY VALLEYS AND INLAND EMPIRE


CITY           SKY/WX    TMP DP  RH WIND       PRES   REMARKS
BURBANK        SUNNY     68  41  37 W3        30.18R
VAN NUYS       MOSUNNY   69  44  40 CALM      30.18R

CITY           SKY/WX    TMP DP  RH WIND       PRES   REMARKS
CORONA AIRPORT CLEAR     72  41  32 SE9       30.19S
*CHATSWORTH      N/A     67  44  43 CALM      30.18S
CHINO          MOSUNNY   66  46  48 CALM      30.19F
*CLAREMONT       N/A     68  39  34 CALM        N/A
MARCH AFB      SUNNY     68  37  32 CALM      30.20S
*NORTHRIDGE      N/A     68  43  40 S3          N/A
ONTARIO        PTSUNNY   64  39  39 CALM      30.19R
*PASADENA        N/A     72  43  35 E1          N/A
POMONA         SUNNY     64  39  39 VRB6      30.21S
RIVERSIDE      MOSUNNY   66  45  46 CALM      30.19S
SAN BERNARDINO MOSUNNY   68  37  32 CALM      30.21R
*SAN GABRIEL     N/A     69  46  42 NE1       30.25R
*SAN RAFAEL HI   N/A     72  35  26 CALM        N/A
*SAUGUS          N/A     68  36  31 W2          N/A
*WHITEMAN AP   SUNNY     68  36  30 CALM      30.22R
*WHITTIER HILL   N/A     68  39  34 E9G21       N/A
*WOODLAND HILL   N/A     72  41  33 E1          N/A

$$

CAZ054-055-171900-
LA AND SAN BERNARDINO COUNTY MOUNTAINS


CITY           SKY/WX    TMP DP  RH WIND       PRES   REMARKS
*ACTON           N/A     60  34  38 N15         N/A
*BIG BEAR AIRP CLEAR     48  28  46 CALM      30.38S
*BIG PINES       N/A     58  29  33 CALM        N/A
*CHILAO          N/A     65  30  27 S2G14       N/A
SANDBERG       SUNNY     59  33  37 E20G26    30.32R
*WARM SPRINGS    N/A     58  33  38 NE21        N/A

$$

CAZ028-029-059-060-099-171900-
ANTELOPE VALLEY AND SURROUNDING AREAS


CITY           SKY/WX    TMP DP  RH WIND       PRES   REMARKS
LANCASTER      SUNNY     51  37  58 CALM      30.31S
PALMDALE       SUNNY     53  37  54 CALM      30.31R
*POPPY PARK      N/A     60  35  39 CALM        N/A

CITY           SKY/WX    TMP DP  RH WIND       PRES   REMARKS
29 PALMS       MOSUNNY   58  38  47 CALM      30.36R
BARSTOW/DAGGET SUNNY     58  36  43 CALM      30.30S
BISHOP         PTSUNNY   49  30  48 CALM      30.33F
CHINA LAKE     PTSUNNY   56  41  57 N5        30.31R
EDWARDS AFB    PTSUNNY   49  34  55 CALM      30.29R
MOJAVE         SUNNY     57  34  41 E5        30.31R
NEEDLES        SUNNY     65  38  36 N8        30.28R
VICTORVILLE    SUNNY     54  30  40 CALM      30.31R

$$

CAZ039-040-171900-
VENTURA AND SANTA BARBARA COUNTY COAST


CITY           SKY/WX    TMP DP  RH WIND       PRES   REMARKS
CAMARILLO      SUNNY     62  50  64 CALM      30.17R
NWS OXNARD       N/A     63  48  57 CALM      30.16R
OXNARD AIRPORT SUNNY     64  46  52 SE6       30.17R
*POINT MUGU    MOSUNNY   65  56  72 SE8       30.18R
SBA APT/GOLETA SUNNY     63  54  72 CALM      30.18R
*SANTA BARBARA   N/A     66  53  63 CALM      30.26R
*VENTURA         N/A     69  45  41 N1        30.13S

$$

CAZ044-045-171900-
VENTURA COUNTY VALLEYS


CITY           SKY/WX    TMP DP  RH WIND       PRES   REMARKS
*SIMI VALLEY     N/A     71  41  33 E3        30.15R
*WESTLAKE VILL   N/A     64  47  53 CALM      30.18R
*OJAI            N/A     69  48  46 CALM      30.13F
*FILLMORE        N/A     71  49  45 W1        30.20F

$$

CAZ053-171900-
VENTURA COUNTY MOUNTAINS


CITY           SKY/WX    TMP DP  RH WIND       PRES   REMARKS
*LOCKWOOD VLY    N/A     55  34  44 E1          N/A
*FRAZIER MTN     N/A     51  23  33 N3        30.01R

$$

CAZ034-035-036-171900-
CENTRAL COAST AND SANTA YNEZ VALLEY


CITY           SKY/WX    TMP DP  RH WIND       PRES   REMARKS
SAN LUIS OBISP CLOUDY    58  49  72 CALM      30.20R
SANTA MARIA    PTSUNNY   58  52  80 CALM      30.21R

CITY           SKY/WX    TMP DP  RH WIND       PRES   REMARKS
*LOMPOC        PTSUNNY   53  52  96 E5        30.22R
*PISMO BEACH     N/A     56  52  88 CALM      30.21R
*SANTA YNEZ      N/A    N/A N/A N/A MISG        N/A

$$

CAZ037-038-051-171900-
SAN LUIS OBISPO COUNTY INTERIOR AND CUYAMA VALLEY


CITY           SKY/WX    TMP DP  RH WIND       PRES   REMARKS
PASO ROBLES    NOT AVBL

$$

CAZ032-033-061-171900-
SOUTHERN DESERTS


CITY           SKY/WX    TMP DP  RH WIND       PRES   REMARKS
BLYTHE         SUNNY     62  37  39 SE3       30.26R
IMPERIAL       SUNNY     66  39  37 CALM      30.23R
PALM SPRINGS   SUNNY     70  39  32 SE3       30.24S
THERMAL        SUNNY     71  40  32 CALM      30.21S

$$

ELSEWHERE ACROSS THE WESTERN UNITED STATES AND MEXICO


CITY           SKY/WX    TMP DP  RH WIND       PRES   REMARKS
DEATH VALLEY,    N/A     59  46  63 CALM        N/A
DENVER, CO     SUNNY     38  12  34 W9        30.31R WCI  31
GRAND CANYON,  SUNNY     47  20  34 E6        30.39R
HONOLULU, HI   PTCLDY    75  61  60 NE15G29   30.16R
KAHULUI, MAUI  MOSUNNY   73  64  73 NE12      30.16R
LAKE TAHOE, CA MOSUNNY   38  34  85 CALM      30.37R
LAS VEGAS, NV  MOSUNNY   58  36  43 N3        30.33R
MAMMOTH LAKES, FAIR      36  28  71 SE3       30.39F
MEXICO CITY, M PTSUNNY   57  32  38 E5        30.44F
PHOENIX, AZ    MOSUNNY   62  22  21 E14       30.25S
PORTLAND, OR   CLOUDY    48  40  73 SE17      29.95F
RENO, NV       CLOUDY    40  33  76 CALM      30.34R
SALT LAKE CITY PTSUNNY   42  28  57 SE3       30.44R
SAN DIEGO, CA  MOSUNNY   63  53  70 CALM      30.19F
SAN FRANCISCO, CLOUDY    55  54  96 CALM      30.28R FOG
SAN JOSE, CA   CLOUDY    59  54  83 W3        30.27R HAZE
SEATTLE, WA    CLOUDY    50  42  74 SW3       29.94F
TIJUANA, MEX   NOT AVBL

$$

STATION/POSITION TIME  TEMP    WIND        PRES    VSBY  WAVE
                       AIR SEA DIR/SP/G                  HT/PER
                 (UTC) (F)     (DEG/KT/KT) (MB)    (MI)  (FT/S)
POINT ARGUELLO B NOT AVBL
WEST SANTA BARBA 1750   57 59  320/ 16/ 19 1022.0R        12/15
POINT CONCEPTION NOT AVBL
EAST SANTA BARBA 1800   60     230/  8/ 10 1022.8
SANTA MONICA BAY 1800           60/  2/  4 1021.7


USA.gov is the U.S. government's official web portal to all federal, state and local government web resources and services.